Погода в Липецке

Погода в Липецке : погода сейчас, прогноз погоды и архив. Всё, что Вы хотите узнать о погоде в Липецке!

Хотите узнать прогноз погоды в Липецке? Тогда Вам сюда: Погода в Липецке

Поиск расширенной информации на нашем сайте:

Другие новости

Новости СМИ2

Главная страница сайта

Новости сайта

02.10.2013

Напоминаем, что на нашем новом сайте вы можете получить высокодетализированные прогнозы погоды по пунктам России, СНГ и мира (включающие важные для авиации метеовеличины, такие как направление и скорость ветра, видимость, явления погоды, количество и форма облачности, нижняя и верхняя граница облачности), а также ознакомиться с разнообразными материалами по авиационной метеорологии и подборкой полезных ссылок на эту тему.

Сайт Метеоцентр.Азия посвящён разработке технологий оптимизации авиаметеорологического обслуживания, включая проектирование и перспективное создание нескольких автоматизированных авиаметеорологических систем:
- система выпуска высокодетальных прогностических карт явлений погоды для нижнего воздушного пространства по России и ближнему зарубежью;
- система верификации прогнозов TAF (выпускаемых синоптиками официальных АМСГ РФ и ближнего зарубежья) и AUTOTAF (выпускаемых сайтом Метеоцентр.Азия) - выявление ошибок, онлайн-сопоставление с фактической погодой METAR, автоматическое внесение коррективов в прогнозы при резком отклонении фактической погоды от прогноза, подсчёт оправдываемости прогнозов по элементам и в целом;
- система обработки, анализа и отображения авиаметеорологической информации для применения провайдерами метеорологической информации.

Рекомендуем: Системы безопасности хабаровск посмотреть.

Погода в Липецке - сегодня

Время (UTC), дата Ветер
(°,м/с) 
Видим.   Явления Облачность Т
(°С)
Тd
(°С)
f(%) Тe
(°С)
Pmin
(гПа)
dP
(гПа)
Po
(мм)
O2
(г/м3)
Тmin Tmax R s Состояние
почвы
09 18.01.17 270 (З) 10 км  в посл. час ливневой снег  9/9 600 м 
[Sc]
-4.3 -5.2 93 -7  1036.4  0.9  760  312           
12 18.01.17 300 (СЗ) 10 км  {ливн. осадки}  5/5 400 м 
[St]
-3.9 -5.8 87 -7  1036.1  -0.3  760  311           
15 18.01.17 260 (З) 5000 м  дымка  6/6 1140 м 
[Sc]
-10 -10.6 95 -14  1037.1  0.4  760  319    -3.6  0.0     
18 18.01.17 260 (З) 5000 м  дымка  9/9 660 м 
[Sc]
-9 -9.7 95 -13  1037.4  0.4  760  318           
21 18.01.17 270 (З) 0400 м  переохл. туман  ?/? 30 
-10.5 -11.1 95 -14  1037  -0.5  760  320           
00 19.01.17 260 (З) 8000 м  слаб. ливневой снег{туман}  10/10 570 м 
[Sc]
-7.4 -8.3 93 -10  1035.3  -1.3  759  315           
03 19.01.17 260 (З) 10 км  {ливн. осадки}  4/4 1500 м 
[Sc]
-11.2 -11.8 95 -14  1035.1  -0.6  759  320  -12    0.0  83  очень
неравномерный
сухой снег
(сугробы, заносы) 
06 19.01.17 260 (З) 10 км  {ливн. осадки}  4/0 средняя, верхняя 
[Ac trans|Ci fib]
-12.9 -14.2 90 -16  1034.6  -0.7  758  322  -13.3         
09 19.01.17 250 (З) 10 км    3/0 средняя 
[Ac trans]
-11.8 -13.1 90 -18  1034.1  -0.4  758  320           
12 19.01.17 230 (ЮЗ) 10 км    9/6 300 м средняя 
[St|Ac trans]
-8.7 -10.2 89 -14  1033.7  758  316           
15 19.01.17 250 (З) 7-10{10}  10 км    9/0 средняя 
[Ac trans]
-8.1 -9.5 90 -14  1032.1  -1.6  757  315    -8.1       
18 19.01.17 250 (З) 7-10{11}  10 км    9/9 840 м 
[Sc]
-7.6 -8.9 90 -13  1029.1  -2.8  755  314           
21 19.01.17 250 (З) 8-11{12}  10 км  позёмок{снег}  10/10 1020 м 
[Sc]
-6.9 -8.1 91 -13  1027.1  -2  753  312           
00 20.01.17 260 (З) 10-13{13}  4000 м  слаб. снег  10/10 300 м 
[Frnb|Ns]
-7 -7.9 93 -14  1023.7  -3.3  751  311           
03 20.01.17 260 (З) 10-13{14}  8000 м  слаб. снег  10/10 300 м 
[Frnb|Ns]
-6.6 -7.8 91 -13  1020.6  -3  748  310  -8.1    0.2  83  очень
неравномерный
сухой снег
(сугробы, заносы) 
06 20.01.17 250 (З) 7-10{13}  10 км  позёмок{снег}  10/10 360 м 
[St]
-6.2 -7.7 89 -11  1018.3  -2.2  747  309           
09 20.01.17 270 (З) 8-10{11}  10 км  позёмок  10/10 270 м 
[St]
-5.3 -6.3 93 -11  1017.5  -0.7  746  307           
12 20.01.17 270 (З) 7{10}  10 км    10/10 300 м 
[St]
-3.9 -5.4 89 -9  1016.8  -0.6  746  305           
15 20.01.17 280 (З) 10 км    10/10 400 м 
[St]
-3.6 -5.8 85 -8  1017.5  0.8  746  305    -3.6  0.0     
18 20.01.17 280 (З) 10 км    10/10 930 м 
[Sc]
-3.2 -5.3 85 -7  1017.5  746  305           
21 20.01.17 280 (З) 10 км    10/10 1050 м 
[Sc]
-3.6 -5.4 87 -7  1016.8  -0.7  746  305           
00 21.01.17 270 (З) 10 км    8/0 средняя 
[Ac und]
-4 -5.4 90 -7  1015.9  -1  745  305           
03 21.01.17 260 (З) 8000 м  слаб. снег  10/4 300 м средняя 
[Frnb|As op]
-3.6 -4.7 92 -7  1013.8  -1.9  744  304  -4    0.0  83  очень
неравномерный
сухой снег
(сугробы, заносы) 
06 21.01.17 260 (З) 6000 м  слаб. снег  10/10 330 м 
[Frnb|Ns]
-3.3 -4 95 -7  1012.5  -1.3  743  303           
09 21.01.17 260 (З) 4000 м  слаб. ливневой снег  10/10 300 м кучево-дожд. 
[Cb calv]
-1.7 -2.5 94 -5  1010.8  -1.5  741  301           
Время (UTC), дата Ветер
(°,м/с) 
Видим.   Явления Облачность Т
(°С)
Тd
(°С)
f(%) Тe
(°С)
Pmin
(гПа)
dP
(гПа)
Po
(мм)
O2
(г/м3)
Тmin Tmax R s Состояние
почвы

Для получения пояснительной информации подведите курсор к названию столбца.

ПОГОДА в Липецке - архив

Всё, что Вы хотите узнать о погоде в Липецке - удобно и подробно!

Выберите нужную дату (начиная с 1 января 2015* года) и нажмите кнопку "Найти".
Будут отображены архивные сводки погоды по пункту Липецк, начиная с указанной даты.


Отображать данные в формате CSV (для использования в таблицах Excel)


Внимание! Наш архив погоды предназначен исключительно для личного некоммерческого использования в познавательных целях. Если Вам необходимы официальные справки о состоянии погоды (для производственных, юридических, коммерческих и т.п. целей), обращайтесь в органы Росгидромета.

*Примечание: данная дата относится к архиву по метеостанциям СССР (Россия, СНГ, Балтия).
Архив по метеостанциям Зарубежной Европы и Азии (кроме Китая) хранится 10 дней, по другим регионам земного шара (Китай, Африка, Америка, Австралия, Океания) - 1 день.

Липецк - район местоположения метеостанции


Название, широта, долгота, высота метеостанции:
Липецк 52.7°ш. 39.5°д. 177 м над ур. моря [Российская Федерация]

Дополнительная информация

В oтличие oт бoльшинства пoгoдных сайтoв мы публикуем пoдрoбную метеoинфoрмацию в детальнoм прoфессиoнальнoм фoрмате.

Характеристики температуры и влажнoсти вoздуха измеряются на высoте 2 м в тени вдали oт зданий и деревьев.
Скoрoсть ветра измеряется на высoте 10 м (на урoвне рoста челoвека скoрoсть ветра ниже в 1.5-2 раза). Если метеoстанция нахoдится в гoрoде или в лесу, тo скoрoсть ветра занижена на 2-4 м/с пo сравнению с oткрытым местoм. Скoрoсть ветра над акватoриями крупных рек и oзёр, а также на вершинах хoлмoв на 2-5 м/с выше, чем в oбычных услoвиях.
Атмoсфернoе давление в разных тoчках местнoсти мoжет значительнo oтличаться oт давления на метеoстанции, в зависимoсти oт услoвий рельефа (при пoдъёме на 10 м давление пoнижается примернo на 1 мм рт.ст.).